Location: Unspecified
(43.4354°N, 0.0000°E)
Time: 18:38:36
(UTC+00:00)

A-11 Canister half - Pass Details

Date: 27 June 2019
Orbit: 1514 x 1686 km, 47.2° (Epoch: 24 August)

Event Time Altitude Azimuth Distance (km) Brightness Sun altitude
Rises 07:28:23 0° 199° (SSW) 4,926 11.5 31.0°
Reaches altitude 10° 07:32:02 10° 189° (S) 3,935 11.1 31.7°
Maximum altitude 07:40:29 32° 132° (SE) 2,590 11.2 33.2°
Drops below altitude 10° 07:48:46 10° 75° (ENE) 3,868 12.4 34.7°
Sets 07:52:17 0° 66° (ENE) 4,832 12.5 35.3°
